SL-16 DEB, 22371

Orbit data source: Space-Track

SL-16 DEB, 22371 is space debris in LEO originally from a launch on Fri, 25 Dec 1992 UTC launched from the Tyuratam Missile And Space Complex (TTMTR). Debris objects in space refer to the collection of defunct objects orbiting the Earth. Examples of debris include non-operational satellites, rocket bodies, and fragments generated from explosions, collisions, or faulty payload assembly.

Loading next visibility...
Identifier
22371, 1992-093BL
Orbit
LEO
Country
Flag of CISCIS
Related business
Manufacturer
Unknown
Mission
Spacecraft
Bus & Motor
Unknown
Mass
Unknown
Launch date (UTC)
1992-12-25 (33 years ago)
Launch vehicle
Unknown
Launch site
Tyuratam Missile And Space Complex (TTMTR)
Object type
Payload
Rocket body
Debris
Shape & HBR
Unknown shape, 1.4 m
Radar Cross Section
Large (>1 m²)

Expand to show TLE details & history
Last TLE update: 2 days ago

TLE from 2 days ago
0 SL-16 DEB
1 22371U 92093BL  26171.44526046  .00000084  00000-0  92269-4 0  9990
2 22371  71.1653 195.0709 0113198 261.5861 203.5258 13.93906161699832
Epoch: 2026-06-20T10:41Z
TLE epoch observation values (Epoch: 2026-06-20T10:41:10.503Z)
Latitude
66.43093°
Longitude
-104.948°
Altitude
1,001.778 km
Speed
7.319 km/s
True Right ascension
21h 36m 01s
True Declination
66° 18' 32"
Sunlit
Object was in daylight at epoch
Visualization orbit readout
Latitude
Unknown
Longitude
Unknown
Altitude
Unknown
Speed
Unknown
Apparent Right ascension
Unknown
Apparent Declination
Unknown
Sunlit
N/A
Visualization observer readout
Local Sidereal Time
04:00:19
Azimuth
Unknown
Elevation
Unknown
Doppler factor
Unknown
Orbital elements
Apogee altitude
995.436 km
Perigee altitude
830.37 km
Semi-major axis
7,291.04 km
Eccentricity
0.01132
Inclination
71.1653°
RAAN
195.0709°
Arg. of periapsis
261.5861°
True anomaly
203.01467°
Mean anomaly
203.5258°
Eccentric anomaly
203.26957°
Mean motion
3.48625 °/min
Orbital period
103.26 mins
BSTAR
0.000092269
Loading maneuver chart data...
Computing Atmospheric mass density...
Loading historical data...
Loading historical data...
Loading historical data...
Loading historical data...
Loading historical data...
Loading historical data...
Loading historical data...

Documentation

Showing up to 5 results
|